Regional Weather Roundup
Issued by NWS

Home | Current Version | Previous Version | Graphics & Text | Print | Product List | Glossary On
Versions: 1 2 3 4 5 6 7 8 9 10 11 12 13 14 15 16 17 18 19 20 21 22 23 24 25 26 27 28 29 30 31 32 33 34 35 36 37 38 39 40 41 42 43 44 45 46 47 48 49 50
000
ASUS43 KIND 222209
RWRIN

WEATHER ROUNDUP FOR INDIANA
NATIONAL WEATHER SERVICE INDIANAPOLIS IN
600 PM EDT SUN OCT 22 2017

NOTE: "FAIR" INDICATES FEW OR NO CLOUDS BELOW 12,000 FEET WITH NO
SIGNIFICANT WEATHER AND/OR OBSTRUCTIONS TO VISIBILITY.

* - STATION DOES NOT REPORT WEATHER SUCH AS PRECIPITATION OR FOG.

+ - STATION NOT QUALITY CONTROLLED BY THE NATIONAL WEATHER SERVICE.
    USE DATA WITH CAUTION...ESPECIALLY DEWPOINT AND RELATIVE
    HUMIDITY OBSERVATIONS.

INZ001>003-010>013-019-020-222300-
NORTHWEST INDIANA

CITY           SKY/WX    TMP DP  RH WIND       PRES   REMARKS
GARY /AIRPORT/ LGT RAIN  55  54  94 NW12G23   30.02R
KNOX *+        CLOUDY    68  61  77 SW9       29.99R
LA PORTE +     RAIN      65  63  91 SW13G23   29.99R
MICHIGAN CITY+ DRIZZLE   64  64 100 S10       29.97F
MONTICELLO +   CLOUDY    74  57  56 SW9       29.97S
RENSSELAER +   CLOUDY    70  55  60 SW8       29.97F
VALPARAISO     CLOUDY    69  63  81 SW12      29.98S

$$

LMZ046-743>745-222300-
SOUTHERN LAKE MICHIGAN

STATION/POSITION TIME  TEMP    WIND        PRES    WAVE
                       AIR SEA DIR/SP/G            HT
                 (UTC) (F)     (DEG/KT/KT) (MB)    (FT)
BURNS HARBOR     2140   61     320/ 21/ 28 1014.9R
MICHIGAN CITY    2140   67     180/ 12/ 16   N/A
5NW MICH CITY    2200   57 58  330/ 19/ 27   N/A     1

$$

INZ004-005-014>016-021>024-222300-
NORTH CENTRAL INDIANA

CITY           SKY/WX    TMP DP  RH WIND       PRES   REMARKS
ELKHART        CLOUDY    73  57  56 S10       29.98S
GOSHEN         CLOUDY    75  56  51 S14       29.98F
LOGANSPORT +   CLOUDY    73  57  56 S14       29.99S
SOUTH BEND     LGT RAIN  68  62  81 S7        29.98S
WARSAW +       CLOUDY    73  57  56 S6        29.99F

$$

INZ006>009-017-018-025>027-222300-
NORTHEAST INDIANA

CITY           SKY/WX    TMP DP  RH WIND       PRES   REMARKS
AUBURN +       MOCLDY    73  54  49 SE3       30.03S
FORT WAYNE     MOCLDY    75  56  51 S12       30.02S
HUNTINGTON +   CLOUDY    75  56  51 S9        30.01F
KENDALLVILLE + MOCLDY    74  57  55 S9G17     30.02S

$$

INZ028-029-035-036-043>045-051>053-222300-
WEST CENTRAL INDIANA

CITY           SKY/WX    TMP DP  RH WIND       PRES   REMARKS
CRAWFORDSVL +  CLOUDY    73  57  56 S15G24    29.99S
GREENCASTLE +  CLOUDY    72  55  56 S9G17     30.01S
LAFAYETTE      CLOUDY    74  59  59 S8        29.96F
TERRE HAUTE    CLOUDY    74  58  57 S13       29.98F

$$

INZ030>032-037>040-046>048-054>057-064-065-222300-
CENTRAL INDIANA

CITY           SKY/WX    TMP DP  RH WIND       PRES   REMARKS
CP ATTERBURY + CLOUDY    72  55  56 S12       30.05S
COLUMBUS       MOCLDY    73  50  43 S12G17    30.05F
FRANKFORT +    CLOUDY    76  60  56 S5        30.01S
GREENWOOD *+   CLOUDY    77  59  54 S13G21    30.04S
INDIANAPOLIS   MOCLDY    74  57  55 S18G26    30.02S
-EAGLE CREEK   CLOUDY    75  57  53 S10G21    30.01F
KOKOMO +       PTCLDY    74  58  57 S15G23    30.01F
MT COMFORT *+  MOCLDY    73  63  68 S16G24    30.04S
SHELBYVILLE    PTCLDY    74  55  51 S14G28    30.04F
ZIONSVILLE +   PTCLDY    73  58  59 S14       30.02S

$$

INZ033-034-041-042-049-050-058-059-222300-
EAST CENTRAL INDIANA

CITY           SKY/WX    TMP DP  RH WIND       PRES   REMARKS
MUNCIE         MOCLDY    76  56  49 S8G22     30.03F
RICHMOND +     PTCLDY    70  54  56 S16       30.10S

$$

INZ060-061-067>069-081>083-085>088-222300-
SOUTHWEST INDIANA

CITY           SKY/WX    TMP DP  RH WIND       PRES   REMARKS
EVANSVILLE     CLOUDY    76  59  55 SE8G16    29.97F
HUNTINGBURG +  CLOUDY    75  60  59 SE12      30.00F
WASHINGTON +   CLOUDY    75  56  51 S9G18     29.98F

$$

INZ062-063-066-070>080-084-089>092-222300-
SOUTH CENTRAL AND SOUTHEAST INDIANA

CITY           SKY/WX    TMP DP  RH WIND       PRES   REMARKS
BEDFORD +      MOCLDY    73  55  53 SE9       30.01F
BLOOMINGTON    CLOUDY    74  56  53 S10       30.02S
MADISON *+     CLOUDY    72  52  49 SE5       30.08F
NORTH VERNON + CLOUDY    72  54  53 S6        30.07F
SEYMOUR +      CLOUDY    73  55  53 SE7       30.04F

$$





USA.gov is the U.S. government's official web portal to all federal, state and local government web resources and services.